Waukegan, IL

9:55 AM CDT on June 22, 2017 (GMT -0500)
Waukegan Regional

Weather History for KUGN - November, 2013

Change the Weather History Date:

Monday, November 25, 2013

  Actual Average Record
Temperature  
Mean Temperature 26 °F -  
Max Temperature 31 °F 41 °F 57 °F (2006)
Min Temperature 21 °F 27 °F 12 °F (2005)
Degree Days  
Heating Degree Days 39 31  
Month to date heating degree days 672 619  
Since 1 July heating degree days 1312 1225  
Cooling Degree Days 0 0  
Month to date cooling degree days 0 0  
Year to date cooling degree days 590 564  
Moisture  
Dew Point 19 °F    
Average Humidity 63    
Maximum Humidity 85    
Minimum Humidity 40    
Precipitation  
Precipitation 0.00 in 0.08 in 0.26 in (2004)
Month to date precipitation 1.94 2.34  
Year to date precipitation 28.18 33.17  
Sea Level Pressure  
Sea Level Pressure 30.14 in    
Wind  
Wind Speed 14 mph (SW)    
Max Wind Speed 28 mph    
Max Gust Speed 33 mph    
Visibility 7 miles    
Events Snow    
T = Trace of Precipitation, MM = Missing Value Source: NWS Daily Summary

Daily Weather History Graph

Daily Weather History Graph

Search for Another Location

Airport or City:

Trip Planner

Search our weather history database for the weather conditions in past years. The results will help you decide how hot, cold, wet, or windy it might be!

Date:

Astronomy

Nov. 25, 2013 Rise Set
Actual Time 6:54 AM CST 4:22 PM CST
Civil Twilight 6:23 AM CST 4:53 PM CST
Nautical Twilight 5:49 AM CST 5:27 PM CST
Astronomical Twilight 5:15 AM CST 6:01 PM CST
Moon 11:51 PM CST (11/25) 12:06 PM CST (11/25)
Length of Visible Light 10h 29m
Length of Day
9h 27m
Waning Gibbous, 51% of the Moon is Illuminated
Nov 25
Waning Gibbous
Nov 25
Last Quarter
Dec 2
New
Dec 9
First Quarter
Dec 17
Full

Hourly Weather History & Observations

Time (CST) Temp. Windchill Dew Point Humidity Pressure Visibility Wind Dir Wind Speed Gust Speed Precip Events Conditions
12:52 AM 21.9 °F 6.9 °F 6.1 °F 51% 30.33 in 10.0 mi SSW 19.6 mph 31.1 mph N/A   Clear
1:52 AM 21.0 °F 7.1 °F 5.0 °F 50% 30.32 in 10.0 mi SSW 16.1 mph 21.9 mph N/A   Clear
2:52 AM 23.0 °F 9.6 °F 7.0 °F 50% 30.29 in 10.0 mi SSW 16.1 mph 20.7 mph N/A   Clear
3:52 AM 24.1 °F 9.4 °F 3.9 °F 42% 30.26 in 10.0 mi SW 20.7 mph 27.6 mph N/A   Clear
4:52 AM 25.0 °F 11.3 °F 6.1 °F 45% 30.23 in 10.0 mi SSW 18.4 mph 29.9 mph N/A   Clear
5:52 AM 25.0 °F 10.9 °F 7.0 °F 46% 30.21 in 10.0 mi SSW 19.6 mph 26.5 mph N/A   Overcast
6:52 AM 26.1 °F 10.4 °F 10.9 °F 53% 30.21 in 7.0 mi SSW 26.5 mph 33.4 mph N/A   Overcast
6:58 AM 24.8 °F 8.4 °F 15.8 °F 69% 30.15 in 1.8 mi SW 27.6 mph 33.4 mph 0.00 in Snow Light Snow
7:04 AM 23.0 °F 8.7 °F 17.6 °F 80% 30.15 in 0.8 mi SSW 18.4 mph 33.4 mph 0.00 in Snow Light Snow
7:27 AM 23.0 °F 8.7 °F 19.4 °F 86% 30.13 in 3.0 mi SSW 18.4 mph - 0.00 in Snow Light Snow
7:43 AM 23.0 °F 11.1 °F 19.4 °F 86% 30.13 in 3.0 mi SSW 12.7 mph - 0.00 in   Overcast
7:52 AM 24.1 °F 10.6 °F 16.0 °F 71% 30.18 in 10.0 mi SSW 17.3 mph - 0.00 in   Overcast
8:52 AM 26.1 °F 13.1 °F 12.9 °F 58% 30.19 in 10.0 mi SW 17.3 mph 24.2 mph N/A   Overcast
9:52 AM 27.0 °F 14.7 °F 12.9 °F 56% 30.17 in 10.0 mi SSW 16.1 mph 25.3 mph N/A   Overcast
10:14 AM 26.6 °F 14.3 °F 17.6 °F 69% 30.12 in 2.5 mi SW 16.1 mph 25.3 mph 0.00 in Snow Light Snow
10:20 AM 26.6 °F 14.3 °F 17.6 °F 69% 30.11 in 3.0 mi SW 16.1 mph 25.3 mph 0.00 in Snow Light Snow
10:52 AM 27.0 °F 14.3 °F 18.0 °F 69% 30.14 in 4.0 mi SW 17.3 mph 28.8 mph 0.00 in Snow Light Snow
11:29 AM 26.6 °F 13.4 °F 19.4 °F 74% 30.08 in 1.8 mi SW 18.4 mph 23.0 mph 0.00 in Snow Light Snow
11:50 AM 26.6 °F 14.3 °F 21.2 °F 80% 30.07 in 0.8 mi SW 16.1 mph 24.2 mph 0.00 in Snow Light Snow
11:52 AM 26.1 °F 13.1 °F 21.9 °F 84% 30.12 in 0.8 mi SW 17.3 mph 24.2 mph 0.00 in Snow Light Snow
12:02 PM 26.6 °F 14.3 °F 21.2 °F 80% 30.06 in 1.2 mi SSW 16.1 mph 24.2 mph 0.00 in Snow Light Snow
12:41 PM 26.6 °F 14.3 °F 23.0 °F 86% 30.05 in 2.0 mi SSW 16.1 mph - 0.00 in Snow Light Snow
12:52 PM 28.0 °F 17.0 °F 23.0 °F 81% 30.09 in 5.0 mi SW 13.8 mph 20.7 mph 0.00 in Snow Light Snow
1:03 PM 28.4 °F 16.2 °F 23.0 °F 80% 30.05 in 5.0 mi SW 17.3 mph 21.9 mph 0.00 in Snow Light Snow
1:52 PM 28.9 °F 21.9 °F 24.1 °F 82% 30.09 in 6.0 mi WSW 6.9 mph 19.6 mph 0.00 in Snow Light Snow
2:03 PM 28.4 °F 18.0 °F 24.8 °F 86% 30.04 in 4.0 mi SW 12.7 mph 21.9 mph 0.00 in Snow Light Snow
2:52 PM 28.9 °F 19.2 °F 24.1 °F 82% 30.10 in 10.0 mi SW 11.5 mph 19.6 mph 0.00 in   Overcast
3:52 PM 28.9 °F 21.1 °F 25.0 °F 85% 30.12 in 9.0 mi WSW 8.1 mph 18.4 mph N/A   Overcast
4:52 PM 28.9 °F 20.4 °F 25.0 °F 85% 30.12 in 9.0 mi SW 9.2 mph 19.6 mph N/A   Overcast
5:43 PM 30.2 °F 21.9 °F 24.8 °F 80% 30.08 in 9.0 mi SW 9.2 mph 18.4 mph N/A   Overcast
5:52 PM 30.0 °F 21.7 °F 25.0 °F 82% 30.12 in 9.0 mi SW 9.2 mph 17.3 mph N/A   Overcast
6:52 PM 30.0 °F 22.4 °F 25.0 °F 82% 30.12 in 10.0 mi WSW 8.1 mph - N/A   Overcast
7:52 PM 30.9 °F 22.2 °F 25.0 °F 79% 30.13 in 10.0 mi SW 10.4 mph 17.3 mph N/A   Overcast
8:52 PM 30.9 °F 22.8 °F 25.0 °F 79% 30.12 in 10.0 mi SW 9.2 mph 16.1 mph N/A   Overcast
9:33 PM 30.2 °F 22.6 °F 24.8 °F 80% 30.07 in 10.0 mi SW 8.1 mph - N/A   Partly Cloudy
9:52 PM 28.9 °F 20.4 °F 24.1 °F 82% 30.12 in 10.0 mi SW 9.2 mph - N/A   Clear
10:52 PM 28.9 °F 20.4 °F 25.0 °F 85% 30.11 in 10.0 mi SW 9.2 mph - N/A   Overcast
11:52 PM 30.0 °F 24.1 °F 25.0 °F 82% 30.09 in 10.0 mi SW 5.8 mph - N/A   Overcast